OBJECT BH (43813 NORAD) Tracking and Keplerian Element Data

This shows tracking and keplerian element data for the satellite.

Feedback or suggestion? Click here.




ElementValue
Catalog43813
NameOBJECT BH
Epoch Orbit537
Epoch Day10.82638706
Epoch Year2019
RAAN84.6568
Inclination97.7707
Eccentricity0.0015261
Argument of Perigee125.6063
Mean Anonmoly234.6582
Mean Motion14.95367834
Decay Rate5.17E-06
L11 43813U 18099BH 19010.82638706 .00000517 00000-0 52005-4 0 9996
L22 43813 97.7707 84.6568 0015261 125.6063 234.6582 14.95367834 5378

Live tracking and technical data element details for OBJECT BH (NORAD 43813). OBJECT BH can be tracked NOW for your location showing map with azimuth and elevation plus other details from your city location.

Track the satellite on the map from your city or location and see movement details for azimuth, elevation, latitude, longitude, range, height, and movement on the map or in text.







IsCatalogInMostPopularTable: catalog: 43813, numindb: 21
Update: records affected: 1



GetName: 43813 OBJECT BH

Hit Count: updated at: Thu, 17 Jan 2019 14:47:59 GMT